Regional Weather Roundup
Issued by NWS

Home | Current Version | Previous Version | Text Only | Print | Product List | Glossary Off
Versions: 1 2 3 4 5 6 7 8 9 10 11 12 13 14 15 16 17 18 19 20 21 22 23 24 25 26 27 28 29 30 31 32 33 34 35 36 37 38 39 40 41 42 43 44 45 46 47 48 49 50

000
ASUS45 KSLC 271010
RWRUT

UTAH REGIONAL WEATHER ROUNDUP
NATIONAL WEATHER SERVICE SALT LAKE CITY UT
400 AM MDT THU APR 27 2017

UTZ001>011-023>025-271100-

NORTHERN UTAH

CITY           SKY/WX    TMP DP  RH WIND       PRES   REMARKS
BRIGHAM CITY   CLOUDY    43  37  81 W5        29.76R
HILL AFB       CLOUDY    41  37  87 NW8       29.75R
LOGAN          CLOUDY    43  36  76 NW7       29.74R
OGDEN          MOCLDY    42  37  82 N8        29.74R
SALT LAKE CITY MOCLDY    45  39  79 W18       29.76R
TOOELE VALLEY  CLOUDY    43  37  81 N5        29.80R
WENDOVER       CLEAR     43  25  49 NW24G35   29.79F
HEBER CITY     MIX PCPN  37  36  93 CALM      29.72R
WEST JORDAN    CLOUDY    45  45  98 N8        29.78R

$$

UTZ011>015-024>027-271100-

CENTRAL/NORTHEAST UTAH

CITY           SKY/WX    TMP DP  RH WIND       PRES   REMARKS
PROVO AIRPORT  PTCLDY    42  36  79 CALM      29.78R
MOAB/CANYONLAN CLOUDY    50  37  61 W9        29.64F
DELTA          CLOUDY    45  37  76 NW7       29.79R
PRICE          MOCLDY    36  36 100 N8        29.69R WCI  30
RICHFIELD      MOCLDY    43  43 100 CALM      29.79R
ROOSEVELT      MOCLDY    41  37  87 W3        29.68R
VERNAL         CLOUDY    43  39  86 S3        29.65S

$$

UTZ013>016-019>022-027-271100-

SOUTHERN UTAH

CITY           SKY/WX    TMP DP  RH WIND       PRES   REMARKS
BRYCE CANYON   MOCLDY    36  33  89 W8        29.80S WCI  30
CEDAR CITY     PTCLDY    40  35  83 W3        29.77S
MILFORD        CLOUDY    45  42  89 CALM      29.77S
ST GEORGE      MOSUNNY   63  39  41 NW10      29.67R
HANKSVILLE     PTCLDY    45  41  87 N5        29.69F
KANAB          CLEAR     57  32  38 W6        29.75S
BLANDING       CLOUDY    45  41  86 CALM      29.77F

$$

REGIONAL REPORTS     COLORADO/ARIZONA

CITY           SKY/WX    TMP DP  RH WIND       PRES   REMARKS
CRAIG, CO      LGT RAIN  38  35  89 CALM      29.64F
GRAND JUNCTION CLOUDY    46  39  76 S8        29.65F
RIFLE, CO      CLOUDY    41  38  89 S6        29.66F
MONTROSE, CO   CLOUDY    40  33  76 NE3       29.70F
CORTEZ, CO     LGT RAIN  44  41  89 CALM      29.73F FOG
COLORADO CITY    N/A     54  34  47 NW6       29.75S
PAGE, AZ       PTCLDY    58  38  47 NW5       29.67S
GRAND CANYON   PTCLDY    44  28  53 SW6       29.83F
KINGMAN, AZ    CLEAR     59  37  44 E3        29.72S
FLAGSTAFF, AZ  MOCLDY    49  30  48 W18G30    29.82F

$$

REGIONAL REPORTS    NEVADA/IDAHO/WYOMING

CITY           SKY/WX    TMP DP  RH WIND       PRES   REMARKS
LAS VEGAS, NV  MOCLDY    71  36  27 NW5       29.66S
ELY, NY        LGT RAIN  37  34  89 NW5       29.87S WCI  33
ELKO, NV       PTCLDY    38  26  62 NE6       29.89F WCI  33
POCATELLO, ID  CLOUDY    38  35  89 SW24G30   29.71R WCI  27
BURLEY, ID     FLURRIES  37  31  78 W24G38    29.74R WCI  26
FORT BRIDGER,  HVY SNOW  33  33 100 W12       29.69R VSB 1/4 WCI  25
EVANSTON, WY   CLOUDY    32  32 100 W6        29.70R WCI  26
ROCK SPRINGS,  CLOUDY    36  31  82 W20       29.62F WCI  25
KEMMERER, WY     N/A     32  30  93 W23       29.64F WCI  19

$$



USA.gov is the U.S. government's official web portal to all federal, state and local government web resources and services.